Location: Home
(42.5358°N, 72.7383°W)
Time: 07:00:19
(UTC-05:00)

Explorer 11/Cluster Stage 4 - Pass Details

Date: 09 December 2021
Orbit: 467 x 1255 km, 28.8° (Epoch: 25 January)

Event Time Altitude Azimuth Distance (km) Brightness Sun altitude
Rises 04:17:44 0° 251° (WSW) 3,546 - -30.7°
Reaches altitude 10° 04:21:43 10° 227° (SW) 2,778 - -30.0°
Maximum altitude 04:24:55 14° 199° (SSW) 2,631 - -29.4°
Exits shadow 04:25:09 14° 196° (SSW) 2,641 9.1 -29.3°
Drops below altitude 10° 04:28:20 10° 171° (S) 3,014 9.7 -28.7°
Sets 04:33:01 0° 148° (SSE) 4,094 10.8 -27.9°
